Time,TemperatureF,DewpointF,PressureIn,WindDirection,WindDirectionDegrees,WindSpeedMPH,WindSpeedGustMPH,Humidity,HourlyPrecipIn,Conditions,Clouds,dailyrainin,SolarRadiationWatts/m^2,SoftwareType,DateUTC
2013-07-23 00:00:00,74.0,64.0,-100.00,NW,315,11.0,-999.0,72,-99.99,,,-99.99,0.000000,,2013-07-23 05:00:00,
2013-07-23 00:44:00,74.0,64.0,-100.00,NW,315,11.0,-999.0,72,-99.99,,,-99.99,0.000000,,2013-07-23 05:44:00,
2013-07-23 00:52:00,74.0,64.0,-100.00,NW,315,11.0,-999.0,72,-99.99,,,-99.99,0.000000,,2013-07-23 05:52:00,
2013-07-23 01:00:00,70.0,59.0,-100.00,NNW,337,10.0,-999.0,68,-99.99,,,-99.99,0.000000,,2013-07-23 06:00:00,
2013-07-23 01:42:00,70.0,59.0,-100.00,NNW,337,10.0,-999.0,68,-99.99,,,-99.99,0.000000,,2013-07-23 06:42:00,
2013-07-23 01:52:00,70.0,59.0,-100.00,NNW,337,10.0,-999.0,68,-99.99,,,-99.99,0.000000,,2013-07-23 06:52:00,
2013-07-23 02:00:00,68.0,57.0,-100.00,NNW,337,11.0,-999.0,67,-99.99,,,-99.99,0.000000,,2013-07-23 07:00:00,
2013-07-23 02:42:00,68.0,57.0,-100.00,NNW,337,11.0,-999.0,67,-99.99,,,-99.99,0.000000,,2013-07-23 07:42:00,
2013-07-23 02:52:00,68.0,57.0,-100.00,NNW,337,11.0,-999.0,67,-99.99,,,-99.99,0.000000,,2013-07-23 07:52:00,
2013-07-23 03:00:00,66.0,56.0,-100.00,NNW,337,10.0,-999.0,68,-99.99,,,-99.99,0.000000,,2013-07-23 08:00:00,
2013-07-23 03:43:00,66.0,56.0,-100.00,NNW,337,10.0,-999.0,68,-99.99,,,-99.99,0.000000,,2013-07-23 08:43:00,
2013-07-23 03:52:00,66.0,56.0,-100.00,NNW,337,10.0,-999.0,68,-99.99,,,-99.99,0.000000,,2013-07-23 08:52:00,
2013-07-23 04:00:00,64.0,55.0,-100.00,NW,315,7.0,-999.0,72,-99.99,,,-99.99,0.000000,,2013-07-23 09:00:00,
2013-07-23 04:43:00,64.0,55.0,-100.00,NW,315,7.0,-999.0,72,-99.99,,,-99.99,0.000000,,2013-07-23 09:43:00,
2013-07-23 04:53:00,64.0,55.0,-100.00,NW,315,7.0,-999.0,72,-99.99,,,-99.99,0.000000,,2013-07-23 09:53:00,
2013-07-23 05:00:00,63.0,53.0,-100.00,NNW,337,8.0,-999.0,72,-99.99,,,-99.99,0.000000,,2013-07-23 10:00:00,
2013-07-23 05:44:00,63.0,53.0,-100.00,NNW,337,8.0,-999.0,72,-99.99,,,-99.99,0.000000,,2013-07-23 10:44:00,
2013-07-23 05:52:00,63.0,53.0,-100.00,NNW,337,8.0,-999.0,72,-99.99,,,-99.99,0.000000,,2013-07-23 10:52:00,
2013-07-23 06:00:00,62.0,54.0,-100.00,NNW,337,8.0,-999.0,75,-99.99,,,-99.99,11.600000,,2013-07-23 11:00:00,
2013-07-23 06:43:00,62.0,54.0,-100.00,NNW,337,8.0,-999.0,75,-99.99,,,-99.99,11.600000,,2013-07-23 11:43:00,
2013-07-23 06:52:00,62.0,54.0,-100.00,NNW,337,8.0,-999.0,75,-99.99,,,-99.99,11.600000,,2013-07-23 11:52:00,
2013-07-23 07:00:00,61.0,53.0,-100.00,NNW,337,9.0,-999.0,74,-99.99,,,-99.99,138.039993,,2013-07-23 12:00:00,
2013-07-23 07:43:00,61.0,53.0,-100.00,NNW,337,9.0,-999.0,74,-99.99,,,-99.99,138.039993,,2013-07-23 12:43:00,
2013-07-23 08:00:00,62.0,52.0,-100.00,NNW,337,12.0,-999.0,69,-99.99,,,-99.99,298.119995,,2013-07-23 13:00:00,
2013-07-23 08:43:00,62.0,52.0,-100.00,NNW,337,12.0,-999.0,69,-99.99,,,-99.99,298.119995,,2013-07-23 13:43:00,
2013-07-23 08:52:00,62.0,52.0,-100.00,NNW,337,12.0,-999.0,69,-99.99,,,-99.99,298.119995,,2013-07-23 13:52:00,
2013-07-23 09:00:00,61.0,51.0,-100.00,NNW,337,13.0,-999.0,69,-99.99,,,-99.99,335.239990,,2013-07-23 14:00:00,
2013-07-23 09:33:00,61.0,51.0,-100.00,NNW,337,13.0,-999.0,69,-99.99,,,-99.99,335.239990,,2013-07-23 14:33:00,
2013-07-23 09:44:00,61.0,51.0,-100.00,NNW,337,13.0,-999.0,69,-99.99,,,-99.99,335.239990,,2013-07-23 14:44:00,
2013-07-23 09:53:00,61.0,51.0,-100.00,NNW,337,13.0,-999.0,69,-99.99,,,-99.99,335.239990,,2013-07-23 14:53:00,
2013-07-23 10:00:00,60.0,50.0,-100.00,NNW,337,14.0,-999.0,67,-99.99,,,-99.99,298.119995,,2013-07-23 15:00:00,
2013-07-23 10:43:00,60.0,50.0,-100.00,NNW,337,14.0,-999.0,67,-99.99,,,-99.99,298.119995,,2013-07-23 15:43:00,
2013-07-23 10:52:00,60.0,50.0,-100.00,NNW,337,14.0,-999.0,67,-99.99,,,-99.99,298.119995,,2013-07-23 15:52:00,
2013-07-23 11:00:00,61.0,50.0,-100.00,NNW,337,12.0,-999.0,66,-99.99,,,-99.99,281.880005,,2013-07-23 16:00:00,
2013-07-23 11:43:00,61.0,50.0,-100.00,NNW,337,12.0,-999.0,66,-99.99,,,-99.99,281.880005,,2013-07-23 16:43:00,
2013-07-23 11:52:00,61.0,50.0,-100.00,NNW,337,12.0,-999.0,66,-99.99,,,-99.99,281.880005,,2013-07-23 16:52:00,
2013-07-23 12:00:00,62.0,51.0,-100.00,NNW,337,15.0,-999.0,65,-99.99,,,-99.99,691.359985,,2013-07-23 17:00:00,
2013-07-23 12:42:00,62.0,51.0,-100.00,NNW,337,15.0,-999.0,65,-99.99,,,-99.99,691.359985,,2013-07-23 17:42:00,
2013-07-23 12:56:00,62.0,51.0,-100.00,NNW,337,15.0,-999.0,65,-99.99,,,-99.99,691.359985,,2013-07-23 17:56:00,
2013-07-23 13:00:00,61.0,49.0,-100.00,NNW,337,15.0,-999.0,63,-99.99,,,-99.99,752.840027,,2013-07-23 18:00:00,
2013-07-23 13:49:00,61.0,49.0,-100.00,NNW,337,15.0,-999.0,63,-99.99,,,-99.99,752.840027,,2013-07-23 18:49:00,
2013-07-23 13:57:00,61.0,49.0,-100.00,NNW,337,15.0,-999.0,63,-99.99,,,-99.99,752.840027,,2013-07-23 18:57:00,
2013-07-23 14:35:00,63.0,48.0,-100.00,North,0,14.0,-999.0,59,-99.99,,,-99.99,881.599976,,2013-07-23 19:35:00,
2013-07-23 14:55:00,63.0,48.0,-100.00,North,0,14.0,-999.0,59,-99.99,,,-99.99,881.599976,,2013-07-23 19:55:00,
2013-07-23 15:00:00,63.0,48.0,-100.00,North,0,13.0,-999.0,56,-99.99,,,-99.99,813.159973,,2013-07-23 20:00:00,
2013-07-23 15:47:00,63.0,48.0,-100.00,North,0,13.0,-999.0,56,-99.99,,,-99.99,813.159973,,2013-07-23 20:47:00,
2013-07-23 15:59:00,63.0,48.0,-100.00,North,0,13.0,-999.0,56,-99.99,,,-99.99,813.159973,,2013-07-23 20:59:00,
2013-07-23 16:00:00,65.0,49.0,-100.00,North,0,11.0,-999.0,56,-99.99,,,-99.99,719.200012,,2013-07-23 21:00:00,
2013-07-23 16:48:00,65.0,49.0,-100.00,North,0,11.0,-999.0,56,-99.99,,,-99.99,719.200012,,2013-07-23 21:48:00,
2013-07-23 16:57:00,65.0,49.0,-100.00,North,0,11.0,-999.0,56,-99.99,,,-99.99,719.200012,,2013-07-23 21:57:00,
2013-07-23 17:00:00,65.0,47.0,-100.00,North,0,10.0,-999.0,53,-99.99,,,-99.99,585.799988,,2013-07-23 22:00:00,
2013-07-23 17:36:00,65.0,47.0,-100.00,North,0,10.0,-999.0,53,-99.99,,,-99.99,585.799988,,2013-07-23 22:36:00,
2013-07-23 17:47:00,65.0,47.0,-100.00,North,0,10.0,-999.0,53,-99.99,,,-99.99,585.799988,,2013-07-23 22:47:00,
2013-07-23 18:00:00,64.0,45.0,-100.00,NNE,22,8.0,-999.0,49,-99.99,,,-99.99,428.040009,,2013-07-23 23:00:00,
2013-07-23 18:37:00,64.0,45.0,-100.00,NNE,22,8.0,-999.0,49,-99.99,,,-99.99,428.040009,,2013-07-23 23:37:00,
2013-07-23 18:46:00,64.0,45.0,-100.00,NNE,22,8.0,-999.0,49,-99.99,,,-99.99,428.040009,,2013-07-23 23:46:00,
2013-07-23 18:59:00,64.0,45.0,-100.00,NNE,22,8.0,-999.0,49,-99.99,,,-99.99,428.040009,,2013-07-23 23:59:00,
2013-07-23 19:00:00,63.0,44.0,-100.00,NNE,22,7.0,-999.0,48,-99.99,,,-99.99,258.679993,,2013-07-24 00:00:00,
2013-07-23 19:50:00,63.0,44.0,-100.00,NNE,22,7.0,-999.0,48,-99.99,,,-99.99,258.679993,,2013-07-24 00:50:00,
2013-07-23 19:58:00,63.0,44.0,-100.00,NNE,22,7.0,-999.0,48,-99.99,,,-99.99,258.679993,,2013-07-24 00:58:00,
2013-07-23 20:00:00,62.0,45.0,-100.00,North,0,6.0,-999.0,53,-99.99,,,-99.99,99.760002,,2013-07-24 01:00:00,
2013-07-23 20:47:00,62.0,45.0,-100.00,North,0,6.0,-999.0,53,-99.99,,,-99.99,99.760002,,2013-07-24 01:47:00,
2013-07-23 21:00:00,60.0,46.0,-100.00,North,0,6.0,-999.0,60,-99.99,,,-99.99,5.800000,,2013-07-24 02:00:00,
2013-07-23 21:40:00,60.0,46.0,-100.00,North,0,6.0,-999.0,60,-99.99,,,-99.99,5.800000,,2013-07-24 02:40:00,
2013-07-23 21:48:00,60.0,46.0,-100.00,North,0,6.0,-999.0,60,-99.99,,,-99.99,5.800000,,2013-07-24 02:48:00,
2013-07-23 21:57:00,60.0,46.0,-100.00,North,0,6.0,-999.0,60,-99.99,,,-99.99,5.800000,,2013-07-24 02:57:00,
2013-07-23 22:00:00,60.0,45.0,-100.00,North,0,7.0,-999.0,58,-99.99,,,-99.99,0.000000,,2013-07-24 03:00:00,
2013-07-23 22:40:00,60.0,45.0,-100.00,North,0,7.0,-999.0,58,-99.99,,,-99.99,0.000000,,2013-07-24 03:40:00,
2013-07-23 22:46:00,60.0,45.0,-100.00,North,0,7.0,-999.0,58,-99.99,,,-99.99,0.000000,,2013-07-24 03:46:00,
2013-07-23 23:00:00,59.0,46.0,-100.00,North,0,5.0,-999.0,61,-99.99,,,-99.99,0.000000,,2013-07-24 04:00:00,
2013-07-23 23:32:00,59.0,46.0,-100.00,North,0,5.0,-999.0,61,-99.99,,,-99.99,0.000000,,2013-07-24 04:32:00,
2013-07-23 23:43:00,59.0,46.0,-100.00,North,0,5.0,-999.0,61,-99.99,,,-99.99,0.000000,,2013-07-24 04:43:00,
2013-07-23 23:53:00,59.0,46.0,-100.00,North,0,5.0,-999.0,61,-99.99,,,-99.99,0.000000,,2013-07-24 04:53:00,